DW4685 Weather Reports


time (UTC)temp
C
wind
direction
speed
KPH
gust
KPH
rain 1hr
cm
rain 24hr
cm
rain mn
cm
humidity
%
barometer
mb
20260505061503 0 292 9.7 22.5 0.00 0.30 0.00 74 1004.8
20260505060004 0 295 9.7 22.5 0.00 0.30 0.00 73 1004.7
20260505054504 0 289 12.9 24.1 0.00 0.33 0.00 74 1004.6
20260505053004 0 292 9.7 24.1 0.00 0.33 0.00 73 1004.5
20260505051503 0 293 8.0 22.5 0.00 0.33 0.00 73 1004.4
20260505050217 0 294 12.9 32.2 0.00 0.33 0.00 73 1004.2
20260505041503 0 291 12.9 33.8 0.00 0.33 0.33 72 1003.8
20260505040217 0 295 14.5 37.0 0.00 0.33 0.33 72 1003.7
20260505034503 1 297 12.9 35.4 0.00 0.33 0.33 71 1003.6
20260505033003 1 298 11.3 29.0 0.00 0.33 0.33 72 1003.5
20260505031503 1 300 11.3 22.5 0.00 0.33 0.33 73 1003.2
20260505030004 1 295 9.7 25.7 0.00 0.33 0.33 73 1003.0
20260505024503 2 293 11.3 22.5 0.00 0.33 0.33 73 1002.8
20260505023218 2 288 11.3 29.0 0.00 0.33 0.33 72 1002.7
20260505021503 2 292 11.3 24.1 0.00 0.33 0.33 71 1002.4
20260505020218 2 290 11.3 25.7 0.00 0.33 0.33 71 1002.2
20260505014504 3 291 12.9 27.4 0.00 0.33 0.33 69 1001.9
20260505013003 3 289 11.3 24.1 0.00 0.33 0.33 68 1001.6
20260505011504 3 290 11.3 25.7 0.00 0.33 0.33 68 1001.4
20260505010005 4 294 12.9 37.0 0.00 0.33 0.33 66 1001.2
20260505004503 4 292 14.5 30.6 0.00 0.33 0.33 65 1001.0
20260505003004 5 295 14.5 29.0 0.00 0.33 0.33 64 1000.8
20260505001503 5 294 11.3 25.7 0.00 0.33 0.33 64 1000.6
20260505000004 5 294 16.1 33.8 0.00 0.33 0.33 64 1000.3
20260504234504 5 296 12.9 33.8 0.00 0.33 0.33 63 1000.2
20260504233003 6 295 14.5 25.7 0.00 0.33 0.33 62 999.9
20260504231504 6 299 14.5 30.6 0.00 0.33 0.33 63 999.9
20260504230217 6 297 11.3 29.0 0.00 0.33 0.33 65 999.7
20260504224504 6 287 16.1 38.6 0.00 0.33 0.33 63 999.2
20260504223004 7 288 19.3 41.8 0.00 0.33 0.33 60 998.9
20260504221504 7 289 17.7 32.2 0.00 0.33 0.33 61 998.7
20260504220004 8 290 14.5 33.8 0.00 0.33 0.33 61 998.5
20260504214503 7 296 14.5 32.2 0.00 0.33 0.33 63 998.4
20260504213003 6 292 16.1 33.8 0.00 0.33 0.33 63 998.2
20260504211503 8 292 17.7 46.7 0.00 0.33 0.33 61 997.7
20260504210003 8 288 19.3 38.6 0.00 0.33 0.33 63 997.6
20260504204503 7 288 22.5 41.8 0.00 0.33 0.33 66 997.5
20260504203003 7 292 14.5 30.6 0.00 0.33 0.33 64 997.6
20260504201503 6 286 22.5 48.3 0.00 0.33 0.33 66 997.2
20260504200004 6 291 20.9 43.5 0.00 0.33 0.33 67 997.1
20260504194503 6 289 19.3 38.6 0.00 0.33 0.33 68 997.0
20260504193003 6 297 20.9 43.5 0.00 0.33 0.33 68 996.7
20260504191503 6 288 27.4 48.3 0.00 0.33 0.33 67 996.5
20260504190004 6 288 22.5 49.9 0.00 0.33 0.33 68 996.3
20260504184503 6 285 25.7 53.1 0.00 0.33 0.33 70 996.1
20260504183004 6 288 24.1 38.6 0.00 0.33 0.33 71 995.6
20260504181504 6 289 22.5 43.5 0.00 0.33 0.33 71 995.7
20260504180004 5 294 17.7 33.8 0.00 0.33 0.33 72 995.5
20260504174504 5 295 19.3 38.6 0.00 0.33 0.33 74 995.3
20260504173004 5 287 22.5 48.3 0.00 0.33 0.33 76 995.1
20260504171504 5 290 19.3 38.6 0.00 0.33 0.33 74 994.9
20260504081503 7 260 6.4 17.7 0.20 0.33 0.33 88 988.8